This is the latest recevied weather packets stored in our database for station/object DB8NZ-22. If no packets are shown the sender has not sent any weather packets the latest 10 day(s).
| Time | Temp. | Humidity | Pressure | Rain* | Wind** | Luminosity | Snow |
|---|---|---|---|---|---|---|---|
| 1788510826 | 25.56° C | 48% | 1017.5 hPa | - | - | - | - |
| 1788509925 | 25° C | 49% | 1017.6 hPa | - | - | - | - |
| 1788509025 | 24.44° C | 50% | 1017.9 hPa | - | - | - | - |
| 1788508125 | 23.89° C | 53% | 1017.9 hPa | - | - | - | - |
| 1788507225 | 22.78° C | 54% | 1018.2 hPa | - | - | - | - |
| 1788506325 | 22.78° C | 54% | 1018.3 hPa | - | - | - | - |
| 1788505425 | 22.22° C | 55% | 1018.5 hPa | - | - | - | - |
| 1788504525 | 21.67° C | 56% | 1018.5 hPa | - | - | - | - |
| 1788504018 | 21.67° C | 56% | 1018.5 hPa | - | - | - | - |
| 1788503117 | 21.67° C | 57% | 1018.5 hPa | - | - | - | - |
| 1788502217 | 21.11° C | 57% | 1018.6 hPa | - | - | - | - |
| 1788501317 | 21.11° C | 58% | 1018.7 hPa | - | - | - | - |
| 1788500417 | 21.11° C | 58% | 1018.6 hPa | - | - | - | - |
| 1788499517 | 20.56° C | 58% | 1018.6 hPa | - | - | - | - |
| 1788498617 | 20.56° C | 58% | 1018.6 hPa | - | - | - | - |
| 1788497717 | 20.56° C | 58% | 1018.6 hPa | - | - | - | - |
| 1788496817 | 20.56° C | 58% | 1018.7 hPa | - | - | - | - |
| 1788495917 | 20° C | 59% | 1018.8 hPa | - | - | - | - |
| 1788495017 | 20° C | 58% | 1018.8 hPa | - | - | - | - |
| 1788494117 | 20° C | 58% | 1018.9 hPa | - | - | - | - |
| 1788493216 | 20° C | 57% | 1018.9 hPa | - | - | - | - |
| 1788492317 | 20.56° C | 57% | 1019.1 hPa | - | - | - | - |
| 1788491416 | 20° C | 57% | 1019 hPa | - | - | - | - |
| 1788490516 | 20° C | 57% | 1019.1 hPa | - | - | - | - |
| 1788487816 | 18.89° C | 58% | 1019.3 hPa | - | - | - | - |
* Rain since midnight (hover to see other rain measurements)
** Current wind speed in m/s (hover to see current wind gust speed)